Time,TemperatureF,DewpointF,PressureIn,WindDirection,WindDirectionDegrees,WindSpeedMPH,WindSpeedGustMPH,Humidity,HourlyPrecipIn,Conditions,Clouds,dailyrainin,SoftwareType,DateUTC
2013-05-19 00:00:00,67.6,61.6,29.74,SE,143,4.0,8.0,81,0.00,,,0.00,VWS V14.01,2013-05-19 05:00:00,
2013-05-19 00:01:00,66.7,61.4,29.73,SE,134,6.0,7.0,83,0.00,,CLR,0.00,VWS V14.01,2013-05-19 05:01:00,
2013-05-19 00:06:00,66.5,61.5,29.72,SE,133,7.0,8.0,84,0.00,,CLR,0.00,VWS V14.01,2013-05-19 05:06:00,
2013-05-19 00:11:00,66.4,61.4,29.72,ESE,115,8.0,9.0,84,0.00,,CLR,0.00,VWS V14.01,2013-05-19 05:11:00,
2013-05-19 00:16:00,66.3,61.3,29.72,SE,125,6.0,9.0,84,0.00,,CLR,0.00,VWS V14.01,2013-05-19 05:16:00,
2013-05-19 00:21:00,66.2,61.6,29.72,SE,133,7.0,9.0,85,0.00,,CLR,0.00,VWS V14.01,2013-05-19 05:21:00,
2013-05-19 00:26:00,66.2,61.6,29.71,ESE,122,8.0,10.0,85,0.00,,CLR,0.00,VWS V14.01,2013-05-19 05:26:00,
2013-05-19 00:30:00,67.4,61.4,29.73,SE,129,6.0,7.0,81,0.00,,,0.00,VWS V14.01,2013-05-19 05:30:00,
2013-05-19 00:31:00,66.3,61.7,29.72,SE,127,7.0,8.0,85,0.00,,CLR,0.00,VWS V14.01,2013-05-19 05:31:00,
2013-05-19 00:36:00,66.4,61.8,29.72,SE,125,7.0,11.0,85,0.00,,CLR,0.00,VWS V14.01,2013-05-19 05:36:00,
2013-05-19 00:41:00,66.6,61.6,29.72,SE,131,5.0,11.0,84,0.00,,CLR,0.00,VWS V14.01,2013-05-19 05:41:00,
2013-05-19 00:46:00,66.9,61.9,29.72,SE,141,6.0,11.0,84,0.00,,CLR,0.00,VWS V14.01,2013-05-19 05:46:00,
2013-05-19 00:51:00,67.1,61.8,29.73,SE,126,9.0,11.0,83,0.00,,CLR,0.00,VWS V14.01,2013-05-19 05:51:00,
2013-05-19 00:56:00,67.3,62.0,29.73,SE,131,5.0,11.0,83,0.00,,CLR,0.00,VWS V14.01,2013-05-19 05:56:00,
2013-05-19 01:00:00,66.7,61.4,29.73,ESE,108,7.0,9.0,83,0.00,,,0.00,VWS V14.01,2013-05-19 06:00:00,
2013-05-19 01:01:00,67.4,62.1,29.74,SE,137,7.0,10.0,83,0.00,,CLR,0.00,VWS V14.01,2013-05-19 06:01:00,
2013-05-19 01:06:00,67.4,61.7,29.74,SE,131,7.0,11.0,82,0.00,,CLR,0.00,VWS V14.01,2013-05-19 06:06:00,
2013-05-19 01:11:00,67.4,62.1,29.74,SSE,149,6.0,11.0,83,0.00,,CLR,0.00,VWS V14.01,2013-05-19 06:11:00,
2013-05-19 01:16:00,67.4,61.7,29.75,SSE,149,8.0,11.0,82,0.00,,CLR,0.00,VWS V14.01,2013-05-19 06:16:00,
2013-05-19 01:21:00,67.4,61.7,29.74,ESE,115,8.0,11.0,82,0.00,,CLR,0.00,VWS V14.01,2013-05-19 06:21:00,
2013-05-19 01:26:00,67.1,61.8,29.74,SE,139,8.0,11.0,83,0.00,,CLR,0.00,VWS V14.01,2013-05-19 06:26:00,
2013-05-19 01:30:00,66.3,61.7,29.72,SE,137,6.0,10.0,85,0.00,,,0.00,VWS V14.01,2013-05-19 06:30:00,
2013-05-19 01:31:00,66.8,61.5,29.75,SE,141,7.0,10.0,83,0.00,,CLR,0.00,VWS V14.01,2013-05-19 06:31:00,
2013-05-19 01:36:00,66.7,61.7,29.75,SSE,159,9.0,11.0,84,0.00,,CLR,0.00,VWS V14.01,2013-05-19 06:36:00,
2013-05-19 01:41:00,66.8,61.8,29.75,SSE,148,7.0,12.0,84,0.00,,CLR,0.00,VWS V14.01,2013-05-19 06:41:00,
2013-05-19 01:46:00,66.8,61.8,29.75,SSE,155,7.0,12.0,84,0.00,,CLR,0.00,VWS V14.01,2013-05-19 06:46:00,
2013-05-19 01:51:00,66.7,61.7,29.75,SE,138,5.0,12.0,84,0.00,,CLR,0.00,VWS V14.01,2013-05-19 06:51:00,
2013-05-19 01:56:00,66.5,61.9,29.76,SE,128,8.0,12.0,85,0.00,,CLR,0.00,VWS V14.01,2013-05-19 06:56:00,
2013-05-19 02:00:00,67.4,62.1,29.74,SE,145,9.0,11.0,83,0.00,,,0.00,VWS V14.01,2013-05-19 07:00:00,
2013-05-19 02:01:00,66.5,61.9,29.75,SE,133,8.0,8.0,85,0.00,,BKN060,0.00,VWS V14.01,2013-05-19 07:01:00,
2013-05-19 02:06:00,66.6,62.0,29.75,ESE,108,6.0,10.0,85,0.00,,BKN060,0.00,VWS V14.01,2013-05-19 07:06:00,
2013-05-19 02:11:00,66.7,62.0,29.75,SE,125,8.0,10.0,85,0.00,,BKN060,0.00,VWS V14.01,2013-05-19 07:11:00,
2013-05-19 02:16:00,66.6,62.0,29.74,SE,126,8.0,11.0,85,0.00,,BKN060,0.00,VWS V14.01,2013-05-19 07:16:00,
2013-05-19 02:21:00,66.5,62.2,29.74,ESE,108,7.0,11.0,86,0.00,,BKN060,0.00,VWS V14.01,2013-05-19 07:21:00,
2013-05-19 02:26:00,66.4,62.1,29.74,SE,129,8.0,11.0,86,0.00,,BKN060,0.00,VWS V14.01,2013-05-19 07:26:00,
2013-05-19 02:30:00,66.8,61.5,29.74,SE,134,10.0,11.0,83,0.00,,,0.00,VWS V14.01,2013-05-19 07:30:00,
2013-05-19 02:31:00,66.4,62.1,29.74,ESE,121,6.0,9.0,86,0.00,,BKN060,0.00,VWS V14.01,2013-05-19 07:31:00,
2013-05-19 02:36:00,66.3,62.0,29.74,ESE,122,8.0,9.0,86,0.00,,BKN060,0.00,VWS V14.01,2013-05-19 07:36:00,
2013-05-19 02:41:00,66.3,62.0,29.74,SE,129,7.0,11.0,86,0.00,,BKN060,0.00,VWS V14.01,2013-05-19 07:41:00,
2013-05-19 02:46:00,66.5,62.2,29.73,ESE,108,8.0,11.0,86,0.00,,BKN060,0.00,VWS V14.01,2013-05-19 07:46:00,
2013-05-19 02:51:00,66.6,62.0,29.73,ESE,108,10.0,11.0,85,0.00,,BKN060,0.00,VWS V14.01,2013-05-19 07:51:00,
2013-05-19 02:56:00,66.7,62.0,29.73,ESE,119,9.0,12.0,85,0.00,,BKN060,0.00,VWS V14.01,2013-05-19 07:56:00,
2013-05-19 03:00:00,66.5,61.9,29.75,SE,145,5.0,12.0,85,0.00,,,0.00,VWS V14.01,2013-05-19 08:00:00,
2013-05-19 03:01:00,66.9,62.2,29.72,ESE,120,10.0,13.0,85,0.00,,OVC050,0.00,VWS V14.01,2013-05-19 08:01:00,
2013-05-19 03:06:00,66.9,62.2,29.72,East,92,13.0,14.0,85,0.00,,OVC050,0.00,VWS V14.01,2013-05-19 08:06:00,
2013-05-19 03:11:00,66.9,62.2,29.71,ESE,120,11.0,15.0,85,0.00,,OVC050,0.00,VWS V14.01,2013-05-19 08:11:00,
2013-05-19 03:16:00,66.9,62.2,29.70,SE,131,12.0,16.0,85,0.00,,OVC050,0.00,VWS V14.01,2013-05-19 08:16:00,
2013-05-19 03:21:00,66.9,62.2,29.70,ESE,116,11.0,16.0,85,0.00,,OVC050,0.00,VWS V14.01,2013-05-19 08:21:00,
2013-05-19 03:26:00,66.8,62.2,29.70,ESE,115,12.0,16.0,85,0.00,,OVC050,0.00,VWS V14.01,2013-05-19 08:26:00,
2013-05-19 03:30:00,66.4,62.1,29.74,SE,131,6.0,11.0,86,0.00,,,0.00,VWS V14.01,2013-05-19 08:30:00,
2013-05-19 03:31:00,66.8,62.2,29.69,ESE,115,11.0,11.0,85,0.00,,OVC050,0.00,VWS V14.01,2013-05-19 08:31:00,
2013-05-19 03:36:00,66.7,62.4,29.69,ESE,106,9.0,15.0,86,0.00,,OVC050,0.00,VWS V14.01,2013-05-19 08:36:00,
2013-05-19 03:41:00,66.6,62.3,29.68,ESE,113,16.0,19.0,86,0.00,,OVC050,0.00,VWS V14.01,2013-05-19 08:41:00,
2013-05-19 03:46:00,66.6,62.3,29.66,East,94,9.0,19.0,86,0.00,,OVC050,0.00,VWS V14.01,2013-05-19 08:46:00,
2013-05-19 03:51:00,66.6,62.3,29.66,ESE,113,11.0,19.0,86,0.00,,OVC050,0.00,VWS V14.01,2013-05-19 08:51:00,
2013-05-19 03:56:00,66.7,62.4,29.67,ESE,123,10.0,19.0,86,0.00,,OVC050,0.00,VWS V14.01,2013-05-19 08:56:00,
2013-05-19 04:00:00,66.8,62.2,29.72,SE,131,12.0,13.0,85,0.00,,,0.00,VWS V14.01,2013-05-19 09:00:00,
2013-05-19 04:01:00,66.8,62.5,29.68,ESE,107,10.0,14.0,86,0.00,,BKN095,0.00,VWS V14.01,2013-05-19 09:01:00,
2013-05-19 04:06:00,66.9,62.6,29.69,ESE,115,11.0,17.0,86,0.00,,BKN095,0.00,VWS V14.01,2013-05-19 09:06:00,
2013-05-19 04:11:00,66.9,62.6,29.69,SE,138,13.0,17.0,86,0.00,,BKN095,0.00,VWS V14.01,2013-05-19 09:11:00,
2013-05-19 04:16:00,67.0,62.7,29.69,SE,128,12.0,17.0,86,0.00,,BKN095,0.00,VWS V14.01,2013-05-19 09:16:00,
2013-05-19 04:21:00,67.0,62.7,29.70,SE,126,9.0,17.0,86,0.00,,BKN095,0.00,VWS V14.01,2013-05-19 09:21:00,
2013-05-19 04:26:00,67.1,62.8,29.71,SE,145,12.0,17.0,86,0.00,,BKN095,0.00,VWS V14.01,2013-05-19 09:26:00,
2013-05-19 04:30:00,66.8,62.2,29.69,ESE,103,10.0,16.0,85,0.00,,,0.00,VWS V14.01,2013-05-19 09:30:00,
2013-05-19 04:31:00,67.2,62.9,29.73,SSE,158,11.0,13.0,86,0.00,,BKN095,0.00,VWS V14.01,2013-05-19 09:31:00,
2013-05-19 04:36:00,66.7,63.0,29.72,SW,226,10.0,13.0,88,0.12,,BKN095,0.12,VWS V14.01,2013-05-19 09:36:00,
2013-05-19 04:41:00,66.6,63.6,29.71,SSE,150,5.0,16.0,90,0.15,,BKN095,0.15,VWS V14.01,2013-05-19 09:41:00,
2013-05-19 04:46:00,66.6,63.6,29.71,South,172,4.0,16.0,90,0.17,,-RA,0.17,VWS V14.01,2013-05-19 09:46:00,
2013-05-19 04:51:00,66.4,63.7,29.70,SE,142,8.0,16.0,91,0.17,,-RA,0.17,VWS V14.01,2013-05-19 09:51:00,
2013-05-19 04:56:00,66.1,63.4,29.70,ESE,108,7.0,16.0,91,0.17,,-RA,0.17,VWS V14.01,2013-05-19 09:56:00,
2013-05-19 05:00:00,66.8,62.5,29.68,SE,125,14.0,19.0,86,0.00,,,0.00,VWS V14.01,2013-05-19 10:00:00,
2013-05-19 05:01:00,65.8,63.4,29.69,ESE,108,8.0,10.0,92,0.18,,,0.18,VWS V14.01,2013-05-19 10:01:00,
2013-05-19 05:06:00,65.6,63.5,29.70,East,94,8.0,10.0,93,0.18,,,0.18,VWS V14.01,2013-05-19 10:06:00,
2013-05-19 05:11:00,65.6,63.5,29.69,ESE,107,11.0,12.0,93,0.18,,,0.18,VWS V14.01,2013-05-19 10:11:00,
2013-05-19 05:16:00,65.5,63.7,29.68,ESE,112,4.0,12.0,94,0.18,,-RA,0.18,VWS V14.01,2013-05-19 10:16:00,
2013-05-19 05:21:00,65.3,63.5,29.68,ESE,105,9.0,12.0,94,0.18,,-RA,0.18,VWS V14.01,2013-05-19 10:21:00,
2013-05-19 05:26:00,65.2,63.4,29.67,East,89,5.0,12.0,94,0.18,,-RA,0.18,VWS V14.01,2013-05-19 10:26:00,
2013-05-19 05:30:00,67.2,62.9,29.73,SSE,152,12.0,18.0,86,0.00,,,0.00,VWS V14.01,2013-05-19 10:30:00,
2013-05-19 05:31:00,65.0,63.2,29.67,East,91,3.0,5.0,94,0.19,,-RA,0.19,VWS V14.01,2013-05-19 10:31:00,
2013-05-19 05:36:00,64.9,63.1,29.65,ENE,77,6.0,11.0,94,0.19,,-RA,0.19,VWS V14.01,2013-05-19 10:36:00,
2013-05-19 05:41:00,64.9,63.1,29.65,ESE,118,2.0,11.0,94,0.19,,-RA,0.19,VWS V14.01,2013-05-19 10:41:00,
2013-05-19 05:46:00,64.8,63.0,29.64,ESE,110,5.0,11.0,94,0.19,,-RA,0.19,VWS V14.01,2013-05-19 10:46:00,
2013-05-19 05:51:00,64.8,63.0,29.62,ENE,70,3.0,11.0,94,0.19,,-RA,0.19,VWS V14.01,2013-05-19 10:51:00,
2013-05-19 05:56:00,64.7,62.9,29.61,East,92,4.0,11.0,94,0.19,,-RA,0.19,VWS V14.01,2013-05-19 10:56:00,
2013-05-19 06:00:00,65.8,63.4,29.69,East,89,9.0,16.0,92,0.18,,,0.18,VWS V14.01,2013-05-19 11:00:00,
2013-05-19 06:01:00,64.7,62.9,29.62,ESE,118,8.0,9.0,94,0.01,,-RA,0.19,VWS V14.01,2013-05-19 11:01:00,
2013-05-19 06:06:00,64.8,63.0,29.64,SE,125,10.0,14.0,94,0.01,,-RA,0.19,VWS V14.01,2013-05-19 11:06:00,
2013-05-19 06:11:00,64.8,63.0,29.64,East,98,11.0,14.0,94,0.01,,-RA,0.19,VWS V14.01,2013-05-19 11:11:00,
2013-05-19 06:16:00,64.9,63.1,29.65,ESE,123,12.0,14.0,94,0.01,,-RA,0.19,VWS V14.01,2013-05-19 11:16:00,
2013-05-19 06:21:00,65.0,63.2,29.65,ESE,112,14.0,18.0,94,0.01,,-RA,0.19,VWS V14.01,2013-05-19 11:21:00,
2013-05-19 06:26:00,65.0,62.9,29.65,ESE,108,13.0,18.0,93,0.01,,-RA,0.19,VWS V14.01,2013-05-19 11:26:00,
2013-05-19 06:30:00,65.1,63.3,29.67,East,94,5.0,12.0,94,0.19,,,0.19,VWS V14.01,2013-05-19 11:30:00,
2013-05-19 06:31:00,64.9,63.1,29.65,ESE,108,14.0,15.0,94,0.00,,-RA,0.19,VWS V14.01,2013-05-19 11:31:00,
2013-05-19 06:36:00,64.8,63.0,29.66,SE,125,14.0,17.0,94,0.00,,-RA,0.19,VWS V14.01,2013-05-19 11:36:00,
2013-05-19 06:41:00,64.8,63.0,29.66,ESE,110,11.0,17.0,94,0.00,,-RA,0.19,VWS V14.01,2013-05-19 11:41:00,
2013-05-19 06:46:00,64.8,63.0,29.66,East,98,15.0,17.0,94,0.00,,-RA,0.19,VWS V14.01,2013-05-19 11:46:00,
2013-05-19 06:51:00,64.8,63.0,29.67,ESE,116,17.0,18.0,94,0.00,,-RA,0.19,VWS V14.01,2013-05-19 11:51:00,
2013-05-19 06:56:00,64.8,63.0,29.66,SE,125,15.0,20.0,94,0.00,,-RA,0.19,VWS V14.01,2013-05-19 11:56:00,
2013-05-19 07:00:00,64.7,62.9,29.62,ESE,122,8.0,13.0,94,0.19,,,0.19,VWS V14.01,2013-05-19 12:00:00,
2013-05-19 07:01:00,64.8,63.0,29.66,ESE,123,14.0,18.0,94,0.00,,,0.19,VWS V14.01,2013-05-19 12:01:00,
2013-05-19 07:06:00,64.9,63.1,29.66,ESE,120,19.0,19.0,94,0.00,,,0.19,VWS V14.01,2013-05-19 12:06:00,
2013-05-19 07:11:00,64.9,63.1,29.66,ESE,121,17.0,21.0,94,0.00,,,0.19,VWS V14.01,2013-05-19 12:11:00,
2013-05-19 07:16:00,64.9,63.1,29.66,ESE,105,18.0,21.0,94,0.00,,,0.19,VWS V14.01,2013-05-19 12:16:00,
2013-05-19 07:21:00,64.8,63.0,29.66,ESE,117,16.0,21.0,94,0.00,,,0.19,VWS V14.01,2013-05-19 12:21:00,
2013-05-19 07:26:00,64.9,63.4,29.66,SE,129,16.0,21.0,95,0.00,,,0.19,VWS V14.01,2013-05-19 12:26:00,
2013-05-19 07:30:00,64.9,63.1,29.65,ESE,112,15.0,18.0,94,0.01,,,0.19,VWS V14.01,2013-05-19 12:30:00,
2013-05-19 07:31:00,64.9,63.4,29.65,ESE,115,12.0,17.0,95,0.00,,,0.19,VWS V14.01,2013-05-19 12:31:00,
2013-05-19 07:36:00,65.0,63.5,29.66,SE,127,13.0,18.0,95,0.00,,,0.19,VWS V14.01,2013-05-19 12:36:00,
2013-05-19 07:41:00,65.2,63.7,29.66,ESE,121,20.0,21.0,95,0.00,,,0.19,VWS V14.01,2013-05-19 12:41:00,
2013-05-19 07:46:00,65.3,63.8,29.66,ESE,123,14.0,21.0,95,0.00,,,0.19,VWS V14.01,2013-05-19 12:46:00,
2013-05-19 07:51:00,65.4,63.6,29.66,ESE,122,19.0,21.0,94,0.00,,,0.19,VWS V14.01,2013-05-19 12:51:00,
2013-05-19 07:56:00,65.4,63.6,29.66,SE,126,14.0,21.0,94,0.00,,,0.19,VWS V14.01,2013-05-19 12:56:00,
2013-05-19 08:00:00,64.9,63.1,29.66,SE,128,17.0,22.0,94,0.00,,,0.19,VWS V14.01,2013-05-19 13:00:00,
2013-05-19 08:01:00,65.6,63.8,29.66,ESE,123,18.0,18.0,94,0.00,,CLR,0.19,VWS V14.01,2013-05-19 13:01:00,
2013-05-19 08:06:00,65.9,64.1,29.66,SE,136,16.0,22.0,94,0.00,,CLR,0.19,VWS V14.01,2013-05-19 13:06:00,
2013-05-19 08:11:00,66.2,64.4,29.66,SE,131,15.0,22.0,94,0.00,,CLR,0.19,VWS V14.01,2013-05-19 13:11:00,
2013-05-19 08:16:00,66.6,64.5,29.66,ESE,113,16.0,22.0,93,0.00,,CLR,0.19,VWS V14.01,2013-05-19 13:16:00,
2013-05-19 08:21:00,67.0,64.9,29.66,ESE,123,23.0,25.0,93,0.00,,CLR,0.19,VWS V14.01,2013-05-19 13:21:00,
2013-05-19 08:26:00,67.4,65.0,29.66,ESE,107,22.0,26.0,92,0.00,,CLR,0.19,VWS V14.01,2013-05-19 13:26:00,
2013-05-19 08:30:00,64.9,63.4,29.66,ESE,120,17.0,22.0,95,0.00,,,0.19,VWS V14.01,2013-05-19 13:30:00,
2013-05-19 08:31:00,67.5,65.4,29.66,SE,131,14.0,16.0,93,0.00,,CLR,0.19,VWS V14.01,2013-05-19 13:31:00,
2013-05-19 08:36:00,67.7,65.6,29.66,SSE,153,17.0,24.0,93,0.00,,CLR,0.19,VWS V14.01,2013-05-19 13:36:00,
2013-05-19 08:41:00,67.9,65.5,29.66,ESE,118,19.0,24.0,92,0.00,,CLR,0.19,VWS V14.01,2013-05-19 13:41:00,
2013-05-19 08:46:00,68.0,65.6,29.66,SE,138,13.0,24.0,92,0.00,,CLR,0.19,VWS V14.01,2013-05-19 13:46:00,
2013-05-19 08:51:00,68.1,65.7,29.66,SE,138,19.0,24.0,92,0.00,,CLR,0.19,VWS V14.01,2013-05-19 13:51:00,
2013-05-19 08:56:00,68.2,65.8,29.67,SE,126,19.0,24.0,92,0.00,,,0.19,VWS V14.01,2013-05-19 13:56:00,
2013-05-19 09:00:00,65.6,63.8,29.66,ESE,114,18.0,21.0,94,0.00,,,0.19,VWS V14.01,2013-05-19 14:00:00,
2013-05-19 09:01:00,68.3,66.2,29.66,ESE,114,21.0,21.0,93,0.00,,,0.19,VWS V14.01,2013-05-19 14:01:00,
2013-05-19 09:06:00,68.3,65.9,29.66,SE,127,22.0,25.0,92,0.00,,,0.19,VWS V14.01,2013-05-19 14:06:00,
2013-05-19 09:11:00,68.3,65.9,29.65,SE,129,20.0,25.0,92,0.00,,,0.19,VWS V14.01,2013-05-19 14:11:00,
2013-05-19 09:16:00,68.1,65.7,29.64,SE,129,19.0,28.0,92,0.00,,,0.19,VWS V14.01,2013-05-19 14:16:00,
2013-05-19 09:21:00,68.0,65.6,29.63,ESE,123,16.0,28.0,92,0.00,,,0.19,VWS V14.01,2013-05-19 14:21:00,
2013-05-19 09:26:00,67.9,65.8,29.64,SE,128,19.0,28.0,93,0.00,,,0.19,VWS V14.01,2013-05-19 14:26:00,
2013-05-19 09:30:00,67.5,65.4,29.66,SE,135,16.0,26.0,93,0.00,,,0.19,VWS V14.01,2013-05-19 14:30:00,
2013-05-19 09:31:00,67.9,65.8,29.64,ESE,111,21.0,23.0,93,0.00,,,0.19,VWS V14.01,2013-05-19 14:31:00,
2013-05-19 09:36:00,67.9,65.8,29.63,SE,127,16.0,25.0,93,0.00,,,0.19,VWS V14.01,2013-05-19 14:36:00,
2013-05-19 09:41:00,67.7,65.3,29.63,SE,138,24.0,29.0,92,0.00,,,0.19,VWS V14.01,2013-05-19 14:41:00,
2013-05-19 09:46:00,67.7,65.6,29.63,SE,132,20.0,29.0,93,0.00,,,0.19,VWS V14.01,2013-05-19 14:46:00,
2013-05-19 09:51:00,67.7,65.3,29.61,ESE,108,14.0,29.0,92,0.00,,,0.19,VWS V14.01,2013-05-19 14:51:00,
2013-05-19 09:56:00,67.7,65.3,29.62,ESE,111,17.0,29.0,92,0.00,,,0.19,VWS V14.01,2013-05-19 14:56:00,
2013-05-19 10:00:00,68.3,66.2,29.66,SE,127,16.0,25.0,93,0.00,,,0.19,VWS V14.01,2013-05-19 15:00:00,
2013-05-19 10:01:00,67.8,65.4,29.64,ESE,122,16.0,19.0,92,0.00,,,0.19,VWS V14.01,2013-05-19 15:01:00,
2013-05-19 10:06:00,67.9,65.5,29.65,SE,127,17.0,24.0,92,0.00,,BKN008,0.19,VWS V14.01,2013-05-19 15:06:00,
2013-05-19 10:11:00,67.9,65.5,29.65,SE,128,20.0,26.0,92,0.00,,SCT010,0.19,VWS V14.01,2013-05-19 15:11:00,
2013-05-19 10:16:00,68.0,65.6,29.67,SE,133,20.0,27.0,92,0.00,,SCT010,0.19,VWS V14.01,2013-05-19 15:16:00,
2013-05-19 10:21:00,68.2,65.5,29.67,ESE,117,21.0,30.0,91,0.00,,SCT010,0.19,VWS V14.01,2013-05-19 15:21:00,
2013-05-19 10:26:00,68.5,65.8,29.67,ESE,123,21.0,32.0,91,0.00,,SCT010,0.19,VWS V14.01,2013-05-19 15:26:00,
2013-05-19 10:30:00,67.9,65.8,29.65,ESE,123,16.0,28.0,93,0.00,,,0.19,VWS V14.01,2013-05-19 15:30:00,
2013-05-19 10:31:00,69.0,66.6,29.66,ESE,122,17.0,23.0,92,0.00,,BKN012,0.19,VWS V14.01,2013-05-19 15:31:00,
2013-05-19 10:36:00,69.7,67.0,29.66,SSE,148,16.0,28.0,91,0.00,,BKN012,0.19,VWS V14.01,2013-05-19 15:36:00,
2013-05-19 10:41:00,70.5,67.1,29.65,SE,136,20.0,30.0,89,0.00,,BKN012,0.19,VWS V14.01,2013-05-19 15:41:00,
2013-05-19 10:46:00,71.2,67.5,29.66,SE,138,25.0,30.0,88,0.00,,BKN012,0.19,VWS V14.01,2013-05-19 15:46:00,
2013-05-19 10:51:00,71.3,67.2,29.66,SE,145,27.0,30.0,87,0.00,,BKN012,0.19,VWS V14.01,2013-05-19 15:51:00,
2013-05-19 10:56:00,71.8,67.7,29.65,SE,132,23.0,31.0,87,0.00,,BKN012,0.19,VWS V14.01,2013-05-19 15:56:00,
2013-05-19 11:00:00,67.8,65.4,29.64,ESE,113,20.0,29.0,92,0.00,,,0.19,VWS V14.01,2013-05-19 16:00:00,
2013-05-19 11:01:00,72.2,67.8,29.66,SE,136,23.0,24.0,86,0.00,,SCT012,0.19,VWS V14.01,2013-05-19 16:01:00,
2013-05-19 11:06:00,72.4,67.6,29.66,SSE,160,22.0,31.0,85,0.00,,SCT012,0.19,VWS V14.01,2013-05-19 16:06:00,
2013-05-19 11:11:00,72.9,68.5,29.65,SE,127,18.0,31.0,86,0.00,,SCT012,0.19,VWS V14.01,2013-05-19 16:11:00,
2013-05-19 11:16:00,73.6,68.1,29.65,SE,139,25.0,31.0,83,0.00,,SCT012,0.19,VWS V14.01,2013-05-19 16:16:00,
2013-05-19 11:21:00,73.9,67.7,29.65,SSE,153,23.0,31.0,81,0.00,,SCT012,0.19,VWS V14.01,2013-05-19 16:21:00,
2013-05-19 11:26:00,74.3,68.1,29.65,SE,134,21.0,31.0,81,0.00,,SCT012,0.19,VWS V14.01,2013-05-19 16:26:00,
2013-05-19 11:30:00,68.9,66.5,29.66,SE,142,23.0,32.0,92,0.00,,,0.19,VWS V14.01,2013-05-19 16:30:00,
2013-05-19 11:31:00,74.5,68.3,29.65,SE,139,17.0,19.0,81,0.00,,SCT012,0.19,VWS V14.01,2013-05-19 16:31:00,
2013-05-19 11:36:00,74.8,68.9,29.64,SE,134,13.0,25.0,82,0.00,,SCT012,0.19,VWS V14.01,2013-05-19 16:36:00,
2013-05-19 11:41:00,75.2,69.0,29.64,SSE,150,18.0,25.0,81,0.00,,SCT012,0.19,VWS V14.01,2013-05-19 16:41:00,
2013-05-19 11:46:00,75.5,68.2,29.63,SE,138,13.0,25.0,78,0.00,,SCT012,0.19,VWS V14.01,2013-05-19 16:46:00,
2013-05-19 11:51:00,75.8,68.1,29.62,South,180,18.0,25.0,77,0.00,,SCT012,0.19,VWS V14.01,2013-05-19 16:51:00,
2013-05-19 11:56:00,76.4,69.0,29.62,SE,145,19.0,25.0,78,0.00,,SCT012,0.19,VWS V14.01,2013-05-19 16:56:00,
2013-05-19 12:00:00,72.2,68.1,29.65,SE,134,30.0,31.0,87,0.00,,,0.19,VWS V14.01,2013-05-19 17:00:00,
2013-05-19 12:01:00,76.7,68.2,29.62,SSE,150,17.0,17.0,75,0.00,,CLR,0.19,VWS V14.01,2013-05-19 17:01:00,
2013-05-19 12:06:00,77.1,67.8,29.62,SE,145,10.0,23.0,73,0.00,,CLR,0.19,VWS V14.01,2013-05-19 17:06:00,
2013-05-19 12:11:00,77.0,66.9,29.62,SSE,150,15.0,24.0,71,0.00,,CLR,0.19,VWS V14.01,2013-05-19 17:11:00,
2013-05-19 12:16:00,77.1,66.6,29.61,South,170,12.0,24.0,70,0.00,,CLR,0.19,VWS V14.01,2013-05-19 17:16:00,
2013-05-19 12:21:00,76.8,65.9,29.61,SE,141,13.0,24.0,69,0.00,,CLR,0.19,VWS V14.01,2013-05-19 17:21:00,
2013-05-19 12:26:00,76.4,65.9,29.62,SE,139,17.0,24.0,70,0.00,,CLR,0.19,VWS V14.01,2013-05-19 17:26:00,
2013-05-19 12:30:00,74.5,68.7,29.65,SE,134,17.0,31.0,82,0.00,,,0.19,VWS V14.01,2013-05-19 17:30:00,
2013-05-19 12:31:00,76.2,65.3,29.61,SSE,153,12.0,13.0,69,0.00,,CLR,0.19,VWS V14.01,2013-05-19 17:31:00,
2013-05-19 12:36:00,76.2,66.1,29.61,SSE,163,11.0,18.0,71,0.00,,CLR,0.19,VWS V14.01,2013-05-19 17:36:00,
2013-05-19 12:41:00,76.5,66.4,29.61,SE,136,11.0,18.0,71,0.00,,CLR,0.19,VWS V14.01,2013-05-19 17:41:00,
2013-05-19 12:46:00,76.7,66.6,29.61,SE,145,7.0,18.0,71,0.00,,CLR,0.19,VWS V14.01,2013-05-19 17:46:00,
2013-05-19 12:51:00,76.6,66.1,29.60,South,179,5.0,18.0,70,0.00,,CLR,0.19,VWS V14.01,2013-05-19 17:51:00,
2013-05-19 12:56:00,76.8,67.1,29.60,SSE,163,9.0,18.0,72,0.00,,BKN060,0.19,VWS V14.01,2013-05-19 17:56:00,
2013-05-19 13:00:00,76.7,68.2,29.62,SSE,153,15.0,25.0,75,0.00,,,0.19,VWS V14.01,2013-05-19 18:00:00,
2013-05-19 13:01:00,77.1,67.0,29.60,SE,141,12.0,14.0,71,0.00,,BKN060,0.19,VWS V14.01,2013-05-19 18:01:00,
2013-05-19 13:06:00,77.2,67.9,29.59,SSE,152,7.0,14.0,73,0.00,,BKN060,0.19,VWS V14.01,2013-05-19 18:06:00,
2013-05-19 13:11:00,77.5,68.2,29.59,SE,136,11.0,14.0,73,0.00,,BKN060,0.19,VWS V14.01,2013-05-19 18:11:00,
2013-05-19 13:16:00,77.4,67.3,29.58,SE,131,11.0,15.0,71,0.00,,BKN060,0.19,VWS V14.01,2013-05-19 18:16:00,
2013-05-19 13:21:00,77.0,67.3,29.58,SSE,160,15.0,15.0,72,0.00,,BKN060,0.19,VWS V14.01,2013-05-19 18:21:00,
2013-05-19 13:26:00,76.6,67.7,29.57,ESE,119,16.0,23.0,74,0.00,,BKN060,0.19,VWS V14.01,2013-05-19 18:26:00,
2013-05-19 13:30:00,76.2,65.3,29.62,SE,145,12.0,24.0,69,0.00,,,0.19,VWS V14.01,2013-05-19 18:30:00,
2013-05-19 13:31:00,76.1,68.4,29.58,SE,134,13.0,23.0,77,0.00,,BKN060,0.19,VWS V14.01,2013-05-19 18:31:00,
2013-05-19 13:35:00,76.3,69.7,29.57,ESE,123,22.0,22.0,80,0.00,,BKN060,0.19,VWS V14.01,2013-05-19 18:35:00,
2013-05-19 13:41:00,77.2,69.1,29.57,SE,129,21.0,25.0,76,0.00,,,0.19,VWS V14.01,2013-05-19 18:41:00,
2013-05-19 13:46:00,76.9,68.4,29.56,SE,135,20.0,30.0,75,0.00,,,0.19,VWS V14.01,2013-05-19 18:46:00,
2013-05-19 13:51:00,77.0,68.9,29.55,SE,129,22.0,30.0,76,0.00,,,0.19,VWS V14.01,2013-05-19 18:51:00,
2013-05-19 13:55:00,77.8,68.9,29.55,ESE,120,19.0,30.0,74,0.00,,,0.19,VWS V14.01,2013-05-19 18:55:00,
2013-05-19 14:00:00,77.7,68.8,29.54,SE,126,15.0,30.0,74,0.00,,,0.19,VWS V14.01,2013-05-19 19:00:00,
2013-05-19 14:06:00,78.1,69.5,29.54,ESE,105,23.0,25.0,75,0.00,,,0.19,VWS V14.01,2013-05-19 19:06:00,
2013-05-19 14:10:00,76.8,65.0,29.53,ESE,123,33.0,41.0,67,0.00,,,0.19,VWS V14.01,2013-05-19 19:10:00,
2013-05-19 14:16:00,71.2,66.1,29.59,South,184,13.0,47.0,84,0.07,,,0.26,VWS V14.01,2013-05-19 19:16:00,
2013-05-19 14:20:00,68.6,65.6,29.57,SSW,203,8.0,47.0,90,0.38,,,0.57,VWS V14.01,2013-05-19 19:20:00,
2013-05-19 14:26:00,68.5,67.6,29.56,SSE,159,17.0,47.0,97,0.47,,,0.66,VWS V14.01,2013-05-19 19:26:00,
2013-05-19 14:30:00,68.6,67.1,29.57,SSW,193,13.0,47.0,95,0.47,,,0.66,VWS V14.01,2013-05-19 19:30:00,
2013-05-19 14:35:00,67.9,65.5,29.57,SW,226,10.0,27.0,92,0.47,,BKN070,0.66,VWS V14.01,2013-05-19 19:35:00,
2013-05-19 14:40:00,66.9,65.1,29.56,West,277,7.0,27.0,94,0.47,,BKN070,0.66,VWS V14.01,2013-05-19 19:40:00,
2013-05-19 14:45:00,66.7,65.2,29.56,WSW,257,7.0,27.0,95,0.47,,,0.66,VWS V14.01,2013-05-19 19:45:00,
2013-05-19 14:50:00,66.6,65.4,29.57,WSW,245,3.0,27.0,96,0.47,,,0.66,VWS V14.01,2013-05-19 19:50:00,
2013-05-19 14:55:00,67.4,66.8,29.56,SW,232,5.0,27.0,98,0.47,,,0.66,VWS V14.01,2013-05-19 19:55:00,
2013-05-19 15:00:00,68.3,67.4,29.55,SW,215,7.0,27.0,97,0.47,,,0.66,VWS V14.01,2013-05-19 20:00:00,
2013-05-19 15:05:00,69.2,68.3,29.56,WSW,257,4.0,8.0,97,0.47,,,0.66,VWS V14.01,2013-05-19 20:05:00,
2013-05-19 15:10:00,69.5,68.3,29.56,South,173,4.0,8.0,96,0.47,,,0.66,VWS V14.01,2013-05-19 20:10:00,
2013-05-19 15:15:00,69.9,68.4,29.56,SW,224,6.0,10.0,95,0.47,,,0.66,VWS V14.01,2013-05-19 20:15:00,
2013-05-19 15:20:00,70.4,68.9,29.56,WSW,257,6.0,10.0,95,0.47,,,0.66,VWS V14.01,2013-05-19 20:20:00,
2013-05-19 15:25:00,71.1,69.9,29.56,WNW,301,4.0,10.0,96,0.47,,,0.66,VWS V14.01,2013-05-19 20:25:00,
2013-05-19 15:30:00,70.7,68.6,29.56,NNW,333,2.0,10.0,93,0.47,,CLR,0.66,VWS V14.01,2013-05-19 20:30:00,
2013-05-19 15:35:00,70.7,68.9,29.56,WSW,257,9.0,12.0,94,0.00,,CLR,0.66,VWS V14.01,2013-05-19 20:35:00,
2013-05-19 15:40:00,70.9,69.1,29.56,WSW,252,9.0,13.0,94,0.00,,CLR,0.66,VWS V14.01,2013-05-19 20:40:00,
2013-05-19 15:45:00,71.2,69.7,29.57,WSW,250,6.0,13.0,95,0.00,,CLR,0.66,VWS V14.01,2013-05-19 20:45:00,
2013-05-19 15:50:00,71.3,69.2,29.57,SW,224,7.0,13.0,93,0.00,,CLR,0.66,VWS V14.01,2013-05-19 20:50:00,
2013-05-19 15:55:00,71.8,70.0,29.57,NW,312,6.0,13.0,94,0.00,,CLR,0.66,VWS V14.01,2013-05-19 20:55:00,
2013-05-19 16:00:00,73.0,68.9,29.56,West,264,3.0,13.0,87,0.00,,CLR,0.66,VWS V14.01,2013-05-19 21:00:00,
2013-05-19 16:05:00,73.8,68.0,29.56,WSW,246,7.0,10.0,82,0.00,,CLR,0.66,VWS V14.01,2013-05-19 21:05:00,
2013-05-19 16:10:00,74.5,67.9,29.56,SSW,198,6.0,11.0,80,0.00,,CLR,0.66,VWS V14.01,2013-05-19 21:10:00,
2013-05-19 16:15:00,75.2,68.6,29.56,WSW,255,4.0,13.0,80,0.00,,CLR,0.66,VWS V14.01,2013-05-19 21:15:00,
2013-05-19 16:20:00,75.9,67.4,29.55,WSW,253,7.0,13.0,75,0.00,,CLR,0.66,VWS V14.01,2013-05-19 21:20:00,
2013-05-19 16:25:00,76.3,67.4,29.55,WSW,253,10.0,13.0,74,0.00,,CLR,0.66,VWS V14.01,2013-05-19 21:25:00,
2013-05-19 16:30:00,76.8,67.9,29.55,WNW,283,4.0,13.0,74,0.00,,CLR,0.66,VWS V14.01,2013-05-19 21:30:00,
2013-05-19 16:35:00,77.6,65.3,29.55,West,262,6.0,13.0,66,0.00,,CLR,0.66,VWS V14.01,2013-05-19 21:35:00,
2013-05-19 16:40:00,78.3,66.9,29.55,WSW,240,6.0,13.0,68,0.00,,CLR,0.66,VWS V14.01,2013-05-19 21:40:00,
2013-05-19 16:45:00,78.9,67.4,29.55,WSW,249,7.0,15.0,68,0.00,,CLR,0.66,VWS V14.01,2013-05-19 21:45:00,
2013-05-19 16:50:00,79.3,66.5,29.55,West,262,7.0,15.0,65,0.00,,CLR,0.66,VWS V14.01,2013-05-19 21:50:00,
2013-05-19 16:55:00,79.3,65.6,29.54,West,262,8.0,15.0,63,0.00,,CLR,0.66,VWS V14.01,2013-05-19 21:55:00,
2013-05-19 17:00:00,79.3,66.5,29.54,WNW,284,9.0,15.0,65,0.00,,CLR,0.66,VWS V14.01,2013-05-19 22:00:00,
2013-05-19 17:05:00,79.3,67.0,29.53,West,270,11.0,16.0,66,0.00,,CLR,0.66,VWS V14.01,2013-05-19 22:05:00,
2013-05-19 17:10:00,79.1,65.9,29.53,WSW,245,6.0,16.0,64,0.00,,CLR,0.66,VWS V14.01,2013-05-19 22:10:00,
2013-05-19 17:15:00,79.0,67.1,29.53,West,262,10.0,16.0,67,0.00,,CLR,0.66,VWS V14.01,2013-05-19 22:15:00,
2013-05-19 17:20:00,79.0,66.7,29.52,WNW,294,7.0,16.0,66,0.00,,CLR,0.66,VWS V14.01,2013-05-19 22:20:00,
2013-05-19 17:25:00,78.9,66.2,29.52,WSW,242,10.0,16.0,65,0.00,,CLR,0.66,VWS V14.01,2013-05-19 22:25:00,
2013-05-19 17:30:00,78.9,66.6,29.51,West,277,8.0,16.0,66,0.00,,CLR,0.66,VWS V14.01,2013-05-19 22:30:00,
2013-05-19 17:35:00,79.0,66.2,29.51,West,274,16.0,16.0,65,0.00,,CLR,0.66,VWS V14.01,2013-05-19 22:35:00,
2013-05-19 17:40:00,78.9,66.2,29.52,West,262,6.0,16.0,65,0.00,,CLR,0.66,VWS V14.01,2013-05-19 22:40:00,
2013-05-19 17:45:00,78.9,66.6,29.52,West,270,4.0,16.0,66,0.00,,CLR,0.66,VWS V14.01,2013-05-19 22:45:00,
2013-05-19 17:50:00,78.9,66.2,29.51,WNW,285,5.0,16.0,65,0.00,,CLR,0.66,VWS V14.01,2013-05-19 22:50:00,
2013-05-19 17:55:00,78.8,66.5,29.51,WNW,293,4.0,16.0,66,0.00,,CLR,0.66,VWS V14.01,2013-05-19 22:55:00,
2013-05-19 18:00:00,78.7,66.4,29.51,West,259,5.0,16.0,66,0.00,,CLR,0.66,VWS V14.01,2013-05-19 23:00:00,
2013-05-19 18:05:00,78.9,67.0,29.51,WNW,290,1.0,5.0,67,0.00,,CLR,0.66,VWS V14.01,2013-05-19 23:05:00,
2013-05-19 18:10:00,78.9,65.7,29.50,West,267,3.0,5.0,64,0.00,,CLR,0.66,VWS V14.01,2013-05-19 23:10:00,
2013-05-19 18:15:00,78.9,65.7,29.50,WNW,294,6.0,8.0,64,0.00,,CLR,0.66,VWS V14.01,2013-05-19 23:15:00,
2013-05-19 18:20:00,78.5,65.8,29.50,NW,314,2.0,8.0,65,0.00,,CLR,0.66,VWS V14.01,2013-05-19 23:20:00,
2013-05-19 18:25:00,77.7,66.3,29.51,NW,319,3.0,8.0,68,0.00,,CLR,0.66,VWS V14.01,2013-05-19 23:25:00,
2013-05-19 18:30:00,76.8,66.7,29.51,WNW,297,2.0,8.0,71,0.00,,CLR,0.66,VWS V14.01,2013-05-19 23:30:00,
2013-05-19 18:35:00,76.5,66.4,29.50,NW,314,4.0,4.0,71,0.00,,SCT065,0.66,VWS V14.01,2013-05-19 23:35:00,
2013-05-19 18:40:00,75.9,66.2,29.50,NNW,342,1.0,4.0,72,0.00,,SCT065,0.66,VWS V14.01,2013-05-19 23:40:00,
2013-05-19 18:45:00,75.1,65.9,29.51,WSW,253,4.0,6.0,73,0.00,,SCT065,0.66,VWS V14.01,2013-05-19 23:45:00,
2013-05-19 18:50:00,74.1,66.1,29.51,WNW,302,4.0,8.0,76,0.01,,BKN080,0.67,VWS V14.01,2013-05-19 23:50:00,
2013-05-19 18:55:00,72.9,66.4,29.51,West,271,4.0,8.0,80,0.04,,-RA,0.70,VWS V14.01,2013-05-19 23:55:00,
2013-05-19 19:00:00,72.1,66.3,29.50,WSW,244,1.0,8.0,82,0.05,,-RA,0.71,VWS V14.01,2013-05-20 00:00:00,
2013-05-19 19:05:00,71.3,66.6,29.51,North,4,0.0,4.0,85,0.05,,-RA,0.71,VWS V14.01,2013-05-20 00:05:00,
2013-05-19 19:10:00,70.7,66.3,29.52,NNE,20,3.0,7.0,86,0.08,,-RA,0.74,VWS V14.01,2013-05-20 00:10:00,
2013-05-19 19:15:00,70.0,66.3,29.51,North,6,4.0,7.0,88,0.11,,-RA,0.77,VWS V14.01,2013-05-20 00:15:00,
2013-05-19 19:20:00,69.4,65.7,29.50,North,11,3.0,7.0,88,0.12,,,0.78,VWS V14.01,2013-05-20 00:20:00,
2013-05-19 19:25:00,69.2,65.8,29.52,WNW,302,3.0,7.0,89,0.12,,,0.78,VWS V14.01,2013-05-20 00:25:00,
2013-05-19 19:30:00,69.2,65.5,29.55,West,273,15.0,17.0,88,0.14,,,0.80,VWS V14.01,2013-05-20 00:30:00,
2013-05-19 19:35:00,66.9,64.2,29.55,North,350,4.0,22.0,91,0.42,,-RA,1.08,VWS V14.01,2013-05-20 00:35:00,
2013-05-19 19:40:00,66.0,64.8,29.55,WNW,288,2.0,22.0,96,0.57,,-RA,1.23,VWS V14.01,2013-05-20 00:40:00,
2013-05-19 19:45:00,65.9,65.0,29.55,North,349,2.0,22.0,97,0.60,,-RA,1.26,VWS V14.01,2013-05-20 00:45:00,
2013-05-19 19:50:00,65.6,64.7,29.56,NW,306,2.0,22.0,97,0.61,,,1.27,VWS V14.01,2013-05-20 00:50:00,
2013-05-19 19:55:00,65.5,64.6,29.56,NW,312,1.0,22.0,97,0.61,,,1.27,VWS V14.01,2013-05-20 00:55:00,
2013-05-19 20:00:00,65.4,64.8,29.57,North,351,0.0,22.0,98,0.62,,,1.28,VWS V14.01,2013-05-20 01:00:00,
2013-05-19 20:05:00,65.1,64.2,29.57,NNW,335,0.0,4.0,97,0.58,,,1.29,VWS V14.01,2013-05-20 01:05:00,
2013-05-19 20:10:00,64.8,63.9,29.57,NNW,333,1.0,4.0,97,0.58,,,1.29,VWS V14.01,2013-05-20 01:10:00,
2013-05-19 20:15:00,64.2,63.3,29.57,North,360,1.0,6.0,97,0.58,,,1.29,VWS V14.01,2013-05-20 01:15:00,
2013-05-19 20:20:00,64.0,63.4,29.57,North,350,1.0,6.0,98,0.59,,,1.30,VWS V14.01,2013-05-20 01:20:00,
2013-05-19 20:25:00,63.9,63.3,29.55,North,352,1.0,6.0,98,0.60,,,1.31,VWS V14.01,2013-05-20 01:25:00,
2013-05-19 20:30:00,63.9,63.3,29.56,NW,316,0.0,6.0,98,0.60,,,1.31,VWS V14.01,2013-05-20 01:30:00,
2013-05-19 20:35:00,63.9,63.3,29.55,NNW,330,0.0,1.0,98,0.51,,,1.32,VWS V14.01,2013-05-20 01:35:00,
2013-05-19 20:40:00,63.9,63.3,29.54,North,3,0.0,2.0,98,0.52,,-RA,1.33,VWS V14.01,2013-05-20 01:40:00,
2013-05-19 20:45:00,63.9,63.3,29.55,North,1,0.0,2.0,98,0.54,,-RA,1.35,VWS V14.01,2013-05-20 01:45:00,
2013-05-19 20:50:00,64.0,63.4,29.55,North,1,0.0,2.0,98,0.55,,-RA,1.36,VWS V14.01,2013-05-20 01:50:00,
2013-05-19 20:55:00,64.1,63.5,29.55,NNE,16,0.0,2.0,98,0.55,,-RA,1.36,VWS V14.01,2013-05-20 01:55:00,
2013-05-19 21:00:00,64.0,63.7,29.56,NNE,16,0.0,2.0,99,0.56,,-RA,1.37,VWS V14.01,2013-05-20 02:00:00,
2013-05-19 21:05:00,64.0,63.4,29.56,NNE,16,0.0,0.0,98,0.10,,-RA,1.38,VWS V14.01,2013-05-20 02:05:00,
2013-05-19 21:10:00,63.8,63.2,29.53,NNE,22,0.0,2.0,98,0.12,,-RA,1.40,VWS V14.01,2013-05-20 02:10:00,
2013-05-19 21:15:00,63.7,63.1,29.53,NNE,23,0.0,2.0,98,0.13,,-RA,1.41,VWS V14.01,2013-05-20 02:15:00,
2013-05-19 21:20:00,63.7,63.1,29.54,ENE,62,0.0,2.0,98,0.13,,-RA,1.41,VWS V14.01,2013-05-20 02:20:00,
2013-05-19 21:25:00,63.9,63.6,29.53,ENE,64,0.0,2.0,99,0.13,,-RA,1.41,VWS V14.01,2013-05-20 02:25:00,
2013-05-19 21:30:00,64.0,63.7,29.53,ENE,62,1.0,3.0,99,0.14,,-RA,1.42,VWS V14.01,2013-05-20 02:30:00,
2013-05-19 21:35:00,63.9,63.6,29.52,ENE,72,2.0,4.0,99,0.11,,-RA,1.42,VWS V14.01,2013-05-20 02:35:00,
2013-05-19 21:40:00,63.6,63.3,29.50,ENE,57,1.0,4.0,99,0.12,,-RA,1.43,VWS V14.01,2013-05-20 02:40:00,
2013-05-19 21:45:00,63.5,62.9,29.49,ENE,63,2.0,5.0,98,0.12,,-RA,1.43,VWS V14.01,2013-05-20 02:45:00,
2013-05-19 21:50:00,63.3,62.7,29.46,NE,53,2.0,5.0,98,0.13,,-RA,1.44,VWS V14.01,2013-05-20 02:50:00,
2013-05-19 21:55:00,63.4,63.1,29.48,ENE,61,1.0,5.0,99,0.13,,-RA,1.44,VWS V14.01,2013-05-20 02:55:00,
2013-05-19 22:00:00,63.4,63.1,29.48,East,80,2.0,5.0,99,0.14,,-RA,1.45,VWS V14.01,2013-05-20 03:00:00,
2013-05-19 22:05:00,63.3,63.0,29.48,ENE,69,1.0,3.0,99,0.08,,-RA,1.45,VWS V14.01,2013-05-20 03:05:00,
2013-05-19 22:10:00,63.1,62.5,29.48,ENE,71,1.0,4.0,98,0.08,,-RA,1.45,VWS V14.01,2013-05-20 03:10:00,
2013-05-19 22:15:00,62.9,62.3,29.48,ENE,71,0.0,4.0,98,0.08,,-RA,1.45,VWS V14.01,2013-05-20 03:15:00,
2013-05-19 22:20:00,62.8,62.5,29.49,ENE,65,2.0,4.0,99,0.08,,-RA,1.45,VWS V14.01,2013-05-20 03:20:00,
2013-05-19 22:25:00,62.8,62.5,29.49,ENE,64,0.0,4.0,99,0.08,,-RA,1.45,VWS V14.01,2013-05-20 03:25:00,
2013-05-19 22:30:00,62.8,62.5,29.49,East,92,2.0,4.0,99,0.08,,-RA,1.45,VWS V14.01,2013-05-20 03:30:00,
2013-05-19 22:35:00,62.9,62.6,29.49,NE,52,0.0,7.0,99,0.03,,-RA,1.45,VWS V14.01,2013-05-20 03:35:00,
2013-05-19 22:40:00,62.9,62.6,29.50,ESE,122,2.0,7.0,99,0.03,,-RA,1.45,VWS V14.01,2013-05-20 03:40:00,
2013-05-19 22:45:00,62.9,62.6,29.50,East,80,0.0,7.0,99,0.03,,-RA,1.45,VWS V14.01,2013-05-20 03:45:00,
2013-05-19 22:50:00,62.8,62.5,29.50,ESE,108,2.0,7.0,99,0.03,,-RA,1.45,VWS V14.01,2013-05-20 03:50:00,
2013-05-19 22:55:00,62.8,62.5,29.51,East,82,2.0,7.0,99,0.03,,-RA,1.45,VWS V14.01,2013-05-20 03:55:00,
2013-05-19 23:00:00,62.8,62.5,29.52,ESE,103,7.0,8.0,99,0.03,,SCT110,1.45,VWS V14.01,2013-05-20 04:00:00,
2013-05-19 23:01:00,62.8,62.5,29.52,ESE,108,7.0,8.0,99,0.03,,SCT110,1.45,VWS V14.01,2013-05-20 04:01:00,
2013-05-19 23:06:00,62.8,62.5,29.52,East,95,7.0,10.0,99,0.00,,SCT110,1.45,VWS V14.01,2013-05-20 04:06:00,
2013-05-19 23:11:00,62.8,62.5,29.52,ESE,104,5.0,10.0,99,0.01,,-RA,1.46,VWS V14.01,2013-05-20 04:11:00,
2013-05-19 23:16:00,62.7,62.1,29.52,ESE,113,11.0,11.0,98,0.03,,-RA,1.48,VWS V14.01,2013-05-20 04:16:00,
2013-05-19 23:21:00,62.7,62.1,29.53,ESE,120,13.0,14.0,98,0.04,,-RA,1.49,VWS V14.01,2013-05-20 04:21:00,
2013-05-19 23:26:00,62.7,62.1,29.53,ESE,117,9.0,14.0,98,0.04,,-RA,1.49,VWS V14.01,2013-05-20 04:26:00,
2013-05-19 23:30:00,62.8,62.5,29.49,East,94,4.0,5.0,99,0.08,,,1.45,VWS V14.01,2013-05-20 04:30:00,
2013-05-19 23:31:00,62.7,62.1,29.54,ESE,120,10.0,13.0,98,0.05,,-RA,1.50,VWS V14.01,2013-05-20 04:31:00,
2013-05-19 23:36:00,62.7,62.1,29.56,ESE,118,14.0,18.0,98,0.07,,-RA,1.52,VWS V14.01,2013-05-20 04:36:00,
2013-05-19 23:41:00,62.8,62.5,29.57,SE,135,13.0,18.0,99,0.08,,-RA,1.53,VWS V14.01,2013-05-20 04:41:00,
2013-05-19 23:46:00,62.8,62.5,29.58,SE,145,9.0,18.0,99,0.10,,RA,1.55,VWS V14.01,2013-05-20 04:46:00,
2013-05-19 23:51:00,62.8,62.5,29.58,SSE,150,10.0,18.0,99,0.12,,RA,1.57,VWS V14.01,2013-05-20 04:51:00,
2013-05-19 23:56:00,62.8,62.5,29.58,SSE,149,6.0,18.0,99,0.14,,RA,1.59,VWS V14.01,2013-05-20 04:56:00,